Regional Weather Roundup
Issued by NWS Wakefield, VA

Home | Current Version | Previous Version | Graphics & Text | Print | Product List | Glossary On
Versions: 1 2 3 4 5 6 7 8 9 10 11 12 13 14 15 16 17 18 19 20 21 22 23 24 25 26 27 28 29 30 31 32 33 34 35 36 37 38 39 40 41 42 43 44 45 46 47 48 49 50
000
ASUS41 KAKQ 201910
RWRAKQ

REGIONAL WEATHER ROUNDUP
NATIONAL WEATHER SERVICE WAKEFIELD VA
300 PM EDT SAT SEP 20 2014

Note: "fair" indicates few or no clouds below 12,000 feet with no
significant weather and/or obstructions to visibility. * = Denotes
station may not report precipitation (e.g., rain,snow,etc.),
thunder or fog.

VAZ042-051-052>054-056-202000-
NORTHERN VIRGINIA

CITY           SKY/WX    TMP DP  RH WIND       PRES   REMARKS
WASH NATIONAL  MOSUNNY   83  57  41 S9        30.14F
DULLES         MOSUNNY   78  57  48 SE7G16    30.14F
FORT BELVOIR   SUNNY     79  59  50 SE5       30.14F
QUANTICO       SUNNY     78  58  49 SW6       30.14F
FREDERICKSBRG* SUNNY     82  55  39 E3        30.12F
STAFFORD*      SUNNY     80  61  51 E8        30.17F
WARRENTON      SUNNY     83  61  48 SE5       30.12F
CULPEPER*      SUNNY     81  54  39 SE3       30.13F
MANASSAS*      SUNNY     79  55  44 S6        30.14
LEESBURG*      MOSUNNY   81  61  50 S9        30.14F
WINCHESTER     SUNNY     81  55  41 SE14G20   30.12F
FRONT ROYAL*   CLOUDY    79  57  47 S9        30.11F
LURAY*         CLEAR     82  55  39 SE6       30.12F
$$

VAZ048-049-060>072-079>083-202000-
CENTRAL AND SOUTH CENTRAL VIRGINIA...AND NORTH CENTRAL NORTH CAROLINA

CITY           SKY/WX    TMP DP  RH WIND       PRES   REMARKS
RICHMOND       MOSUNNY   84  55  36 E10       30.11F
CHESTERFIELD*  CLEAR     82  52  34 SE8       30.13F
PETERSBURG*    SUNNY     79  51  36 NE8       30.11F
HANOVER        SUNNY     80  56  43 VRB3      30.13F
TAPPAHANNOCK*  MOSUNNY   81  54  39 E6        30.14F
CHARLOTTSVILLE SUNNY     79  56  45 VRB5      30.13F
ORANGE*        SUNNY     82  52  34 S3        30.14F
LOUISA*        SUNNY     81  55  41 E6        30.12F
FARMVILLE*     SUNNY     82  54  36 E6        30.11F
CREWE*         PTCLDY    79  54  41 CALM      30.12F
FORT PICKETT*  PTCLDY    79  56  45 N8        30.12F
LUNENBURG*     PTCLDY    79  60  52 NE3       30.12F
SOUTH HILL*    MOSUNNY   79  59  50 N3        30.16F
LAWRENCEVILLE* PTCLDY    78  60  53 NE3       30.11F
ROANOKE RAPIDS PTCLDY    79  63  57 E9        30.10F
RALEIGH        PTSUNNY   79  57  46 NE12      30.10F
$$

VAZ088>098-202000-
SOUTHEAST VIRGINIA

CITY           SKY/WX    TMP DP  RH WIND       PRES   REMARKS
NORFOLK        PTSUNNY   75  66  73 NE14      30.11F
VIRGINIA BEACH CLOUDY    75  67  76 NE13      30.10F
NORFOLK NAVAL  PTSUNNY   78  67  68 NE14      30.12F
WEST POINT*    MOSUNNY   80  61  51 NE12      30.14F
NEWPORT NEWS   PTSUNNY   80  67  64 E12       30.12F
LANGLEY AFB    PTSUNNY   75  68  78 E13       30.11F
FORT EUSTIS    PTSUNNY   78  59  51 E12       30.10F
WILLIAMSBURG*  MOSUNNY   82  66  57 NE3       30.12F
HR EXEC AP*    MOCLDY    75  66  73 NE8       30.12F
FRANKLIN*      PTSUNNY   79  63  57 NE9       30.10F
WAKEFIELD      PTSUNNY   80  63  55 NE7       30.11F
$$

VAZ020-022-025-037-045-202000-
WEST CENTRAL AND SOUTHWEST VIRGINIA

CITY           SKY/WX    TMP DP  RH WIND       PRES   REMARKS
STAUNTON*      SUNNY     79  52  38 S5        30.16F
HOT SPRINGS VA SUNNY     65  42  43 S6        30.26F
LYNCHBURG      SUNNY     76  58  53 NE3       30.16F
DANVILLE       SUNNY     80  56  43 VRB5      30.13F
SOUTH BOSTON*  NOT AVBL
MARTINSVILLE   SUNNY     81  57  43 E5        30.17F
ROANOKE        MOSUNNY   76  55  48 S6        30.17F
BLACKSBURG     MOSUNNY   73  61  64 CALM      30.20F
DUBLIN*        SUNNY     76  55  48 W3        30.19F
MARION*        MOSUNNY   76  55  47 NE3       30.20F
HILLSVILLE*    SUNNY     71  54  55 CALM      30.20F
RICHLANDS*     CLOUDY    76  58  52 NE3       30.18F
WISE*          CLOUDY    77  55  47 S5        30.18F
ABINGDON*      SUNNY     79  55  43 CALM      30.16F
$$

MDZ021>025-VAZ099-100-202000-
SOUTHERN MARYLAND AND THE DELMARVA PENINSULA

CITY           SKY/WX    TMP DP  RH WIND       PRES   REMARKS
PATUXENT RIVER PTSUNNY   78  62  57 SE7       30.14F
BAY BRIDGE APT   N/A     77  61  57 W9        30.14F
LEONARDTOWN    MOSUNNY   77  54  44 E7        30.15F
DOVER          SUNNY     77  66  68 SE13G18   30.14F
GEORGETOWN     CLOUDY    76  63  64 SE13G21   30.17F
EASTON         MOSUNNY   82  57  42 CALM      30.17F
CAMBRIDGE      MOSUNNY   79  57  47 E8        30.14F
SALISBURY      CLOUDY    79  63  57 E9        30.15F
OCEAN CITY     CLOUDY    74  66  76 SE7       30.17F
WALLOPS ISLAND PTSUNNY   75  64  68 E15       30.15F
ACCOMACK*      PTSUNNY   73  63  68 NE17      30.13F
$$

NCZ012>017-030>032-202000-
EASTERN NORTH CAROLINA

CITY           SKY/WX    TMP DP  RH WIND       PRES   REMARKS
ELIZABETH CITY CLOUDY    74  69  85 NE16      30.09F
AHOSKIE*       MOSUNNY   78  64  63 N10G16    30.09F
EDENTON*       CLOUDY    74  72  92 NE8       30.07F
CURRITUCK*     RAIN      73  68  84 NE8       30.11F
KILL DEVIL HLS CLOUDY    76  69  78 N9        30.06F
MANTEO         CLOUDY    76  68  78 N16G22    30.06F
CAPE HATTERAS  CLOUDY    73  72  96 NE7       30.03F
TARBORO*       MOCLDY    81  64  56 NE12      30.09F
GOLDSBORO      PTSUNNY   80  68  68 N1        30.04F
WASHINGTON     PTSUNNY   77  68  73 N9        30.06F
GREENVILLE     PTSUNNY   79  68  69 NE10      30.08F
NEW BERN       CLOUDY    78  69  73 NE9G18    30.04F
WILMINGTON     CLOUDY    76  68  76 N10       30.01F
$$

VAZ048-202000-
ELSEWHERE

CITY           SKY/WX    TMP DP  RH WIND       PRES   REMARKS
HARRISBURG PA  PTSUNNY   80  58  46 SW12G20   30.11F
BALTIMORE      MOSUNNY   78  50  37 VRB3      30.14F
ANNAPOLIS      SUNNY     77  58  51 S9        30.15F
ANDREWS AFB    MOSUNNY   78  61  54 E7        30.14F
WILMINGTON DE  SUNNY     77  63  61 S15       30.16F
PHILADELPHIA   MOSUNNY   79  59  50 S9        30.16F
WILDWOOD NJ*   CLOUDY    73  63  68 SE10      30.19F
ATLANTIC CITY  CLOUDY    75  62  64 SE10      30.18F
HENDERSON NC   PTSUNNY   77  56  48 N5        30.11F
GREENSBORO     MOSUNNY   79  56  45 NE6       30.12F
ROCKY MOUNT    PTSUNNY   81  62  52 N14       30.09F
FAYETTEVILLE   PTSUNNY   81  60  48 N14       30.05F
CHARLOTTE      MOSUNNY   81  56  42 NE10      30.11F
$$

VAZ100-202000-
MARINE

STATION/POSITION TIME  TEMP    WIND        PRES    WAVE   SWELL
                       AIR SEA DIR/SP/G            HT/PER HT/PER
                 (UTC) (F)     (DEG/KT/KT) (MB)    (FT/S) (FT/S)
44066 TX TWR #4  1900   71 72  130/ 16/ 17 1022.4F   4/10   3/10
CAPE MAY NJ      1900   72 75  120/ 10/ 15 1021.3F
LEWES DE         1900   73 71  140/ 12/ 16 1021.2F
15NM E FENWICK I 1900   72 72              1021.2F   5/ 9
OCEAN-CITY-INLET 1900   73 71  120/  7/ 10 1021.4R
WACHAPREAGUE VA  1900   73 73   60/ 14/ 18 1020.5R
THOMAS POINT MD  1900   73 74  210/  7/  8 1021.8F
GOOSES REEF MD   1900   74     210/  2/  4 1021.6F
COVE POINT MD    1900   73     190/  8/  9 1020.8F
SOLOMONS ISLAND  1900      76                N/A
BISHOPS HEAD MD  1900   76 72   90/  7/ 10 1020.5F
PINEY POINT MD   1900          160/  7/  7   N/A
POTOMAC MD       1900   72      80/  2/  4 1020.5F
CAMBRIDGE MD     1900   78 74  140/  4/ 10 1020.5F
LEWISETTA VA     1900   72 74   80/  4/  5 1020.4F
RAPPAHANNOCK LGT 1900           60/ 14/ 15 1020.6F
STINGRAY PT      1900   74      70/ 10/ 12   N/A
YORK RVR RNG VA  1900   73      50/ 10/ 12 1019.4F
YORKTOWN VA      1900   74 76   70/ 10/ 12 1019.8F
JAMESTOWN VA     1900   74      90/  6/  8   N/A
DOMINION TERM VA 1900   74      70/ 10/ 16 1019.9F
KIPTOPEKE VA     1900      78   60/ 11/ 18   N/A
CHES BAY BRIDGE  1900   72 75   50/ 15/ 17 1019.3F
CAPE HENRY VA    1900   72      40/ 15/ 16 1018.7F
CHESAPEAKE LGHT  1800   71      50/ 19/ 19 1020.4F
WILLOUBY STN VA  1900   73      50/ 12/ 13 1018.7S
S CRANEY ISL VA  1900           20/ 12/ 16 1019.5S
CAPE HENRY BUOY  1900      75                N/A     6/ 7   2/11
1ST LANDING BUOY 1900   72      50/ 14/ 17 1019.5F
CAPE CHARLES BUO 1900      75                N/A     6/ 9   3/ 9
OFFSHORE WE BUOY 1900      74                N/A     7/ 9   5/ 9
64NM E OF VA BCH 1900   74 77   30/ 14/ 17 1018.3F   8/ 9   7/ 9
DUCK PIER NC     1900   72 74   30/ 19/ 20 1017.6F
44100 DUCK FRF   1900      74                N/A     7/ 9   2/11
44056 DUCK FRF   1800                        N/A     7/ 9   2/11
OREGON INLET NC  1900   74 73   10/ 14/ 18 1017.6F
HATTERAS NC      1900   74 73   30/ 10/ 13 1017.0F
DIAMOND SHLS NC  1900   80      90/ 12/ 14 1016.4F   7/ 8   7/ 8
CAPE LOOKOUT NC  1800   74      40/ 20/ 23 1017.3F
$$


USA.gov is the U.S. government's official web portal to all federal, state and local government web resources and services.